Location: Montreal
(45.5000°N, 73.5833°W)
Time: 10:55:30
(UTC-04:00)

Vanguard 1 - Visible Passes

Search period start: 16 July 2018 00:00
Search period end: 26 July 2018 00:00
Orbit: 650 x 3832 km, 34.2° (Epoch: 15 July)

Date Brightness Start Highest point End Pass type
(mag) Time Alt. Az. Time Alt. Az. Time Alt. Az.
16 Jul 10.8 02:49:24 21° SSE 02:49:24 21° SSE 02:52:30 10° SE visible
17 Jul 10.7 03:09:30 22° S 03:09:30 22° S 03:13:14 10° SE visible
18 Jul 10.7 03:29:42 20° S 03:29:42 20° S 03:33:48 10° SE visible
19 Jul 10.9 03:49:58 17° SSW 03:50:26 17° S 03:54:07 10° SSE visible
20 Jul 11.1 04:10:21 13° SSW 04:11:11 14° SSW 04:13:59 10° SSE visible
21 Jul 11.5 21:50:57 10° SSW 21:54:18 14° SSE 21:55:01 13° SSE visible
22 Jul 11.3 22:10:30 10° SSW 22:15:07 18° SSE 22:15:26 18° SSE visible
23 Jul 11.1 22:30:37 10° SW 22:35:46 21° S 22:35:46 21° S visible
24 Jul 11.0 22:51:05 10° SW 22:55:59 24° S 22:55:59 24° S visible
25 Jul 11.1 23:11:46 10° SW 23:16:07 24° SSW 23:16:07 24° SSW visible
